User: anonymous   Login
Location: Mentone
(34.5413°N, 85.5351°W)
Time: 13:13:45
(UTC-05:00)
Language:

SL-8 R/B - Orbit

View from above orbital plane
View from above orbital plane
View from above satellite
View from above satellite

Ground track
Ground track

The orbit data is extracted from the following two-line orbital elements,

1 33066U 08031G   15212.83340616 -.00000014  00000-0  30561-4 0  9997
2 33066 048.4441 080.2243 0007323 095.9533 319.4687 14.69264732381827
Epoch (UTC): 31 July 2015 20:00:06
Eccentricity: 0.0007323
inclination: 48.4441°
perigee height: 658 km
apogee height: 668 km
right ascension of ascending node: 80.2243°
argument of perigee: 95.9533°
revolutions per day: 14.69264732
mean anomaly at epoch: 319.4687°
orbit number at epoch: 38182

The dashed part of the orbit path shows where the satellite is in the earth's shadow,  

DLR